OPS 4682 DEB, 18965

Orbit data source: Space-Track

OPS 4682 DEB, 18965 is space debris in LEO originally from a launch on Sat, 03 Apr 1965 UTC launched from the Air Force Western Test Range (AFWTR). Debris objects in space refer to the collection of defunct objects orbiting the Earth. Examples of debris include non-operational satellites, rocket bodies, and fragments generated from explosions, collisions, or faulty payload assembly.

Loading next visibility...
Identifier
18965, 1965-027AN
Orbit
LEO
Last TLE update
14 hours ago
Origin
Manufacturer
Unknown
Mission
Spacecraft
Bus & Motor
Unknown
Mass
Unknown
Launch date (UTC)
1965-04-03 (60 years ago)
Launch vehicle
Unknown
Launch site
Air Force Western Test Range (AFWTR)
Object type
Payload
Rocket body
Debris
Shape & HBR
Unknown
Radar Cross Section
Small (<0.1 m²)

Expand to show TLE details & history

TLE from 14 hours ago
0 OPS 4682 DEB
1 18965U 65027AN  25128.67516124  .00001246  00000-0  41306-2 0  9998
2 18965  90.2637  16.0336 0046797  64.1265 352.5221 12.99395648897958
Epoch: 2025-05-08T16:12Z
Definitive object data (Epoch: 2025-05-08T16:12:13.931Z)
Latitude
56.66855°
Longitude
-94.16565°
Altitude
1,238.528 km
Speed
7.258 km/s
True Right ascension
01h 02m 32s
True Declination
56° 31' 14"
Sunlit
Object was in daylight at TLE epoch
Visualization TLE readout
Latitude
-25.25176°
Longitude
-93.62839°
Altitude
1,272.174 km
Speed
7.219 km/s
Apparent Right ascension
01h 45m 22s
Apparent Declination
-32° 20' 25"
Sunlit
Object is in daylight
Visualization observer readout
Local Sidereal Time
14:43:09
Azimuth
61.453° ENE
Elevation
-76.114°
Doppler factor
1
Orbital elements
Apogee altitude
1,297.335 km
Perigee altitude
1,225.832 km
Semi-major axis
7,639.72 km
Eccentricity
0.0046797
Inclination
90.2637°
RAAN
16.0336°
Arg. of periapsis
64.1265°
True anomaly
352.4519°
Mean anomaly
352.5221°
Eccentric anomaly
352.48704°
Mean motion
3.25033 °/min
BSTAR
0.0041306
Orbital period
110.76 mins
Loading maneuver chart data...
Loading SW <> Apogee altitude chart data...
Loading historical data...
Loading historical data...
Loading historical data...
Loading historical data...
Loading historical data...
Loading historical data...
Loading historical data...

OPS 4682 DEB Visibility forecast

Observer location: undefined°, undefined°

Span
Click to sort rows by Start time (UTC) header in descending order
Start Az.
Max El. time (UTC)
Max El. Az.
Max El.
End time (UTC)
End Az.
13 mins2025-05-09 16:02:18.510Z148.27° SSE2025-05-09 16:09:18.510Z71.162° E35.525°2025-05-09 16:15:18.510Z11.239° NNE
11 mins2025-05-09 17:54:18.510Z221.841° SW2025-05-09 17:59:18.510Z272.479° WNW27.671°2025-05-09 18:05:18.510Z334.588° NNW
11 mins2025-05-10 03:39:18.510Z29.098° NE2025-05-10 03:44:18.510Z81.021° E27.619°2025-05-10 03:50:18.510Z140.175° SSE
12 mins2025-05-10 05:29:18.510Z347.238° N2025-05-10 05:35:18.510Z276.274° WNW36.344°2025-05-10 05:41:18.510Z212.492° SW
|